Weather in Blackwater

Australia     23°34′58″S   148°52′41″E
temp.,
°C
wind,
m/s
gust,
m/s
humid.,
%
clouds,
%
prec.,
mm/h
press.,
hPa
HPBL,
m
28 february, sun
sun2801:00+25e5877100 0.0 1009556
04:00+24ese488297 0.0 1009533
07:00+24ese7108486 0.0 1010552
10:00+30e775687 0.0 10101340
13:00+33ese664383 0.0 10081817
16:00+29ene475991 0.4 1007571
19:00+27ese61168100 0.9 1009368
22:00+25e51078100 1.7 1009485
1 march, mon
mon101:00+24ese4883100 0.0 1008460
04:00+24se588696 0.0 1008335
07:00+24ese588575 0.0 1009471
10:00+29ese786187 0.0 10091062
13:00+32ese5747100 0.0 10081725
16:00+31ese5648100 0.0 10061592
19:00+27e5971100 1.4 1008209
22:00+25e4982100 1.9 1009341
2 march, tue
tue201:00+23se4787100 0.0 1009230
04:00+23se3588100 0.0 1008147
07:00+24ese3581100 0.0 1010316
10:00+28ese6762100 0.0 1010945
13:00+33se784176 0.0 10072022
16:00+33se674388 0.0 10062085
19:00+27ese356257 0.6 100788
22:00+26e477074 0.9 1009277
3 march, wed
wed301:00+24ese4680100 0.0 1008180
04:00+23se348194 0.0 1008100
07:00+24se3472100 0.0 1010216
10:00+28ese5558100 0.0 1010985
13:00+33e453899 0.0 10072065
16:00+34ese652896 0.0 10052465
19:00+30ese573914 0.0 1007144
22:00+25e7117330 0.1 1009776
4 march, thu
thu401:00+24ese7107943 0.1 1009782
04:00+23ese7107942 0.1 1009621
07:00+22ese6107712 0.0 1011698
10:00+27ese785713 0.0 10111052
13:00+30ese674538 0.0 10091707
16:00+30e664257 0.0 10071879
19:00+26ene585480 0.1 1009723
22:00+23e6116851 0.1 1011708